Flag Weather past 2 weeks in Mexicali, Baja California, Mexico

Now
49 °F

Clear.


Feels Like: 48 °F
Forecast: 46 / 72 °F
Wind: 3 mph from Southwest

Location: Imperial County Airport

Current Time: Nov 24, 2014 at 12:09:30 AM

Latest Report: Nov 23, 2014 at 10:53 PM


Visibility: 10 mi

Pressure: 30.18 "Hg

Humidity: 44%

Dew point: 28 °F

Location of MexicaliLocation

Historic Weather in Mexicali — Graph

°F

Mexicali temperature yesterday

Maximum temperature yesterday: 77 °F (at 1:53 PM)
Minimum temperature yesterday: 49 °F (at 3:53 AM)
Average temperature yesterday: 62 °F

Past Weeks' High & Low Weather Summary

 TemperatureHumidityPressure
High88 °F (Nov 9, 1:53 PM)80% (Nov 22, 12:53 AM)30.26 "Hg (Nov 22, 12:53 AM)
Low41 °F (Nov 18, 3:53 AM)6% (Nov 16, 12:53 PM)29.67 "Hg (Nov 10, 2:53 PM)
Average64 °F41%29.96 "Hg
* Reported Nov 8 10:53 PM — Nov 23 10:53 PM, Mexicali, Weather by CustomWeather, © 2014

Note: Actual official high and low records may vary slightly from our data, if they occured in-between our weather recording intervals... More about our weather records

Advertising

Mexicali weather history for previous 24 hours

 ConditionsComfort  
Time TempWeatherWind HumidityBarometerVisibility
10:53 PM
Nov 23
49 °FClear.3 mph44%30.18 "Hg10 mi
9:53 PM50 °FClear.3 mph43%30.16 "Hg10 mi
8:53 PM57 °FClear.7 mph31%30.15 "Hg10 mi
7:53 PM58 °FClear.10 mph35%30.14 "Hg10 mi
6:53 PM59 °FClear.No wind28%30.14 "Hg10 mi
5:53 PM59 °FClear.No wind32%30.12 "Hg10 mi
4:53 PM64 °FClear.5 mph32%30.11 "Hg10 mi
3:53 PM73 °FSunny.5 mph15%30.10 "Hg10 mi
2:53 PM76 °FSunny.13 mph9%30.11 "Hg10 mi
1:53 PM77 °FSunny.18 mph8%30.11 "Hg10 mi
12:53 PM76 °FSunny.17 mph12%30.10 "Hg10 mi
11:53 AM76 °FSunny.18 mph12%30.12 "Hg10 mi
10:53 AM76 °FSunny.17 mph15%30.14 "Hg10 mi
9:53 AM74 °FSunny.15 mph21%30.15 "Hg10 mi
8:53 AM67 °FSunny.5 mph51%30.14 "Hg10 mi
7:53 AM58 °FSunny.5 mph72%30.09 "Hg10 mi
6:53 AM51 °FSunny.3 mph77%30.06 "Hg10 mi
5:53 AM53 °FClear.3 mph77%30.01 "Hg10 mi
4:53 AM53 °FClear.No wind74%29.98 "Hg10 mi
3:53 AM49 °FClear.3 mph80%29.94 "Hg10 mi
2:53 AM53 °FClear.No wind69%29.93 "Hg10 mi
1:53 AM56 °FClear.3 mph60%29.90 "Hg10 mi
12:53 AM57 °FClear.3 mph55%29.90 "Hg10 mi
Weather by CustomWeather, © 2014

See weather overviewHow to use our weather pages